Find Starlink 31484

NORAD ID: 59005 Int'l Des: 2024-036 Owner: SPXS Country: US Constellation: starlink operational
LEOCIRCULAR

現在のビュー

3D地球を読み込み中...

About Starlink 31484

Starlink 31484 (NORAD 59005) is a starlink constellation satellite (v2 mini) launched Feb 23, 2024 by SPXS of US. It operates in LEO, CIRCULAR orbit with a mass of 730.00 kg.

Starlink 31484について

説明を読み込み中...

次回通過

Passes for default location (London). Set your location on the main map for personalized predictions.

高度履歴

Loading altitude history...

軌道要素

1 59005U 24036H 26161.28866165 .00000235 00000-0 20068-4 0 9992
2 59005 53.1626 7.7961 0001446 92.0537 268.0630 15.30191449129504
Epoch: Jun 10, 2026 • Age: 6 hours

現在のステータス

高度 475.3 km
速度 7.63 km/s
衛星直下点 8.49°N, 84.61°W
打ち上げ日 Feb 23, 2024
運用期間 2.2 years
タイプ internet

技術仕様

分類 Payload
質量 730.00 kg
乾燥質量 700.00 kg
総質量 730.00 kg
長さ 0.30 m
直径 4.10 m
スパン 29.00 m
形状 Box + pan
製造者 SPXS
バスタイプ Starlink V2M
フェーズステータス In Orbit
所有者/国 SPXS/US

Most Searched